{"data":{"norad_id":57260,"intl_designator":"2023-094AU","name":"STARLINK-5026","alt_names":[],"object_type":"PAYLOAD","status":"ACTIVE","operator":null,"country":"US","launch_date":"2023-07-07","launch_site_code":"AFWTR","launch_vehicle":null,"mission":null,"orbit_class":"UNKNOWN","rcs_meters":null,"size_class":null,"mass_kg":null,"dimensions":null,"purposes":["comms"],"wikipedia_slug":null,"has_3d_model":false,"image_url":null,"decayed_at":null,"tle_current":{"epoch":"2026-09-20T18:01:28.399296Z","epoch_age_seconds":102624,"freshness":"FRESH","line1":"1 57260U 23094AU  26263.75102314  .00000002  00000+0  96006-5 0  9997","line2":"2 57260  43.0032 358.1512 0001302 267.7870  92.2832 15.27578188177713","mean_motion":15.27578188,"eccentricity":0.0001302,"inclination_deg":43.0032,"raan_deg":358.1512,"arg_perigee_deg":267.787,"mean_anomaly_deg":92.2832,"bstar":9.6006e-6,"rev_number":17771,"period_min":94.266860532052,"perigee_km":482.16119468874,"apogee_km":483.94784896102,"semimajor_km":6861.1915218249,"source":"CELESTRAK","updated_at":"2026-09-21T09:00:33.593090Z"}}}